^^
Station Historical Data
Daily Summary for April 18, 2018 Units:  Metric    English   Both
« Previous Day
Next Day »
Daily Weekly Monthly Yearly Custom
  High: Low: Average:
Temperature: -17.8 °C -0.4 °C 2.5 °C
Dew Point: -17.8 °C -1.2 °C 1.1 °C
Humidity: Humidity % 78 % 90 %
Wind Speed: 0 km/h 0 km/h 3.1 km/h
Wind Gust: 0 km/h - -
Wind:- - WNW
Pressure: 0 hPa 998.2 hPa -
Precipitation: 0 mm    
Historical Graphs
 
 
Tabular Data for April 18, 2018
Time Temperature Dew Point Pressure Wind Wind Speed Wind Gust Humidity Rainfall Rate (Hourly) solar Conditions
-17.8 °C -17.8 °C 0 hPa Calm     Humidity % 0 mm SoftwareType W/m2 Conditions
00:04 -0.1 °C -0.8 °C 998.5 hPa West 3.2 km/h 11.3 km/h 95 % 0 mm WeatherDisplay:10.37 W/m2 -SN
00:09 -0.1 °C -0.8 °C 998.5 hPa West 3.2 km/h 11.3 km/h 95 % 0 mm WeatherDisplay:10.37 W/m2 -SN
00:14 -0.1 °C -0.8 °C 998.5 hPa WSW 1.6 km/h 11.3 km/h 95 % 0 mm WeatherDisplay:10.37 W/m2 -SN
00:19 -0.1 °C -0.8 °C 998.5 hPa Calm   6.4 km/h 95 % 0 mm WeatherDisplay:10.37 W/m2 -SN
00:24 -0.1 °C -0.8 °C 998.5 hPa WNW 1.6 km/h 11.3 km/h 95 % 0 mm WeatherDisplay:10.37 W/m2 -SN
00:29 -0.1 °C -0.8 °C 998.5 hPa WNW 3.2 km/h 11.3 km/h 95 % 0 mm WeatherDisplay:10.37 W/m2 -SN
00:35 -0.1 °C -0.8 °C 998.5 hPa WNW 8 km/h 16.1 km/h 95 % 0 mm WeatherDisplay:10.37 W/m2 -SN
00:44 -0.2 °C -0.9 °C 998.5 hPa West 1.6 km/h 11.3 km/h 95 % 0 mm WeatherDisplay:10.37 W/m2 -SN
00:49 -0.2 °C -0.9 °C 998.5 hPa West 1.6 km/h 12.9 km/h 95 % 0 mm WeatherDisplay:10.37 W/m2 -SN
00:59 -0.2 °C -0.9 °C 998.5 hPa West 3.2 km/h 11.3 km/h 95 % 0 mm WeatherDisplay:10.37 W/m2 -SN
01:04 -0.2 °C -0.9 °C 998.5 hPa West 1.6 km/h 8 km/h 95 % 0 mm WeatherDisplay:10.37 W/m2 -SN
01:09 -0.2 °C -0.9 °C 998.5 hPa Calm   8 km/h 95 % 0 mm WeatherDisplay:10.37 W/m2 -SN
01:14 -0.2 °C -0.9 °C 998.5 hPa West 1.6 km/h 12.9 km/h 95 % 0 mm WeatherDisplay:10.37 W/m2 -SN
01:19 -0.2 °C -0.9 °C 998.5 hPa WSW 4.8 km/h 12.9 km/h 95 % 0 mm WeatherDisplay:10.37 W/m2 -SN
01:24 -0.2 °C -0.9 °C 998.5 hPa West 3.2 km/h 11.3 km/h 95 % 0 mm WeatherDisplay:10.37 W/m2 -SN
01:29 -0.3 °C -1 °C 998.5 hPa West 3.2 km/h 12.9 km/h 95 % 0 mm WeatherDisplay:10.37 W/m2 -SN
01:34 -0.3 °C -1 °C 998.5 hPa West 1.6 km/h 9.7 km/h 95 % 0 mm WeatherDisplay:10.37 W/m2 -SN
01:39 -0.3 °C -1 °C 998.5 hPa West 1.6 km/h 11.3 km/h 95 % 0 mm WeatherDisplay:10.37 W/m2 -SN
01:44 -0.3 °C -1 °C 998.5 hPa WSW 1.6 km/h 12.9 km/h 95 % 0 mm WeatherDisplay:10.37 W/m2 -SN
01:49 -0.3 °C -1 °C 998.5 hPa West 3.2 km/h 11.3 km/h 95 % 0 mm WeatherDisplay:10.37 W/m2 -SN
01:54 -0.3 °C -1.1 °C 998.5 hPa West 3.2 km/h 11.3 km/h 95 % 0 mm WeatherDisplay:10.37 W/m2 -SN
01:59 -0.3 °C -1.1 °C 998.5 hPa WNW 3.2 km/h 16.1 km/h 95 % 0 mm WeatherDisplay:10.37 W/m2 -SN
02:04 -0.3 °C -1.1 °C 998.5 hPa West 1.6 km/h 16.1 km/h 95 % 0 mm WeatherDisplay:10.37 W/m2 -SN
02:09 -0.3 °C -1.1 °C 998.5 hPa WSW 3.2 km/h 12.9 km/h 95 % 0 mm WeatherDisplay:10.37 W/m2 -SN
02:14 -0.3 °C -1.1 °C 998.5 hPa WSW 3.2 km/h 16.1 km/h 95 % 0 mm WeatherDisplay:10.37 W/m2 -SN
02:19 -0.3 °C -1.1 °C 998.5 hPa West 3.2 km/h 9.7 km/h 95 % 0 mm WeatherDisplay:10.37 W/m2 -SN
02:24 -0.3 °C -1.1 °C 998.2 hPa Calm   12.9 km/h 95 % 0 mm WeatherDisplay:10.37 W/m2 -SN
02:29 -0.3 °C -1.1 °C 998.2 hPa West 3.2 km/h 9.7 km/h 95 % 0 mm WeatherDisplay:10.37 W/m2 -SN
02:34 -0.3 °C -1.1 °C 998.2 hPa West 4.8 km/h 12.9 km/h 95 % 0 mm WeatherDisplay:10.37 W/m2 -SN
02:39 -0.4 °C -1.1 °C 998.2 hPa West 3.2 km/h 11.3 km/h 95 % 0 mm WeatherDisplay:10.37 W/m2 -SN
02:44 -0.4 °C -1.1 °C 998.2 hPa WSW 3.2 km/h 9.7 km/h 95 % 0 mm WeatherDisplay:10.37 W/m2 -SN
02:49 -0.4 °C -1.1 °C 998.2 hPa WSW 3.2 km/h 12.9 km/h 95 % 0 mm WeatherDisplay:10.37 W/m2 -SN
02:54 -0.4 °C -1.1 °C 998.2 hPa WSW 1.6 km/h 9.7 km/h 95 % 0 mm WeatherDisplay:10.37 W/m2 -SN
02:59 -0.4 °C -1.1 °C 998.2 hPa WNW 1.6 km/h 12.9 km/h 95 % 0 mm WeatherDisplay:10.37 W/m2 -SN
03:09 -0.4 °C -1.1 °C 998.2 hPa West 1.6 km/h 12.9 km/h 95 % 0 mm WeatherDisplay:10.37 W/m2 -SN
03:14 -0.4 °C -1.1 °C 998.2 hPa Calm   8 km/h 95 % 0 mm WeatherDisplay:10.37 W/m2 -SN
03:19 -0.4 °C -1.2 °C 998.2 hPa West 1.6 km/h 11.3 km/h 95 % 0 mm WeatherDisplay:10.37 W/m2 -SN
03:24 -0.4 °C -1.2 °C 998.2 hPa WSW 1.6 km/h 12.9 km/h 95 % 0 mm WeatherDisplay:10.37 W/m2 -SN
03:29 -0.4 °C -1.2 °C 998.2 hPa West 4.8 km/h 16.1 km/h 95 % 0 mm WeatherDisplay:10.37 W/m2 -SN
03:34 -0.4 °C -1.2 °C 998.2 hPa West 1.6 km/h 9.7 km/h 95 % 0 mm WeatherDisplay:10.37 W/m2 -SN
03:39 -0.4 °C -1.2 °C 998.2 hPa West 3.2 km/h 11.3 km/h 95 % 0 mm WeatherDisplay:10.37 W/m2 -SN
03:44 -0.4 °C -1.2 °C 998.2 hPa West 1.6 km/h 14.5 km/h 95 % 0 mm WeatherDisplay:10.37 W/m2 -SN
03:49 -0.4 °C -1.2 °C 998.2 hPa WNW 3.2 km/h 19.3 km/h 95 % 0 mm WeatherDisplay:10.37 W/m2 -SN
03:54 -0.4 °C -1.2 °C 998.2 hPa WNW 3.2 km/h 12.9 km/h 95 % 0 mm WeatherDisplay:10.37 W/m2 -SN
03:59 -0.4 °C -1.2 °C 998.2 hPa West 3.2 km/h 11.3 km/h 95 % 0 mm WeatherDisplay:10.37 W/m2 -SN
04:04 -0.4 °C -1.2 °C 998.2 hPa West 3.2 km/h 12.9 km/h 95 % 0 mm WeatherDisplay:10.37 W/m2 -SN
04:09 -0.4 °C -1.2 °C 998.2 hPa West 3.2 km/h 12.9 km/h 95 % 0 mm WeatherDisplay:10.37 W/m2 -SN
04:14 -0.4 °C -1.2 °C 998.2 hPa West 3.2 km/h 11.3 km/h 95 % 0 mm WeatherDisplay:10.37 W/m2 -SN
04:19 -0.4 °C -1.2 °C 998.2 hPa West 3.2 km/h 9.7 km/h 95 % 0 mm WeatherDisplay:10.37 W/m2 -SN
04:24 -0.4 °C -1.2 °C 998.2 hPa West 3.2 km/h 14.5 km/h 95 % 0 mm WeatherDisplay:10.37 W/m2 -SN
04:29 -0.4 °C -1.2 °C 998.2 hPa WNW 1.6 km/h 11.3 km/h 95 % 0 mm WeatherDisplay:10.37 W/m2 -SN
04:34 -0.4 °C -1.2 °C 998.2 hPa West 1.6 km/h 16.1 km/h 95 % 0 mm WeatherDisplay:10.37 W/m2 -SN
04:39 -0.4 °C -1.2 °C 998.2 hPa WSW 3.2 km/h 11.3 km/h 95 % 0 mm WeatherDisplay:10.37 W/m2 -SN
04:44 -0.4 °C -1.2 °C 998.2 hPa WSW 1.6 km/h 14.5 km/h 95 % 0 mm WeatherDisplay:10.37 W/m2 -SN
04:49 -0.4 °C -1.2 °C 998.2 hPa West 4.8 km/h 12.9 km/h 95 % 0 mm WeatherDisplay:10.37 W/m2 -SN
04:54 -0.4 °C -1.2 °C 998.2 hPa West 3.2 km/h 14.5 km/h 95 % 0 mm WeatherDisplay:10.37 W/m2 -SN
04:59 -0.4 °C -1.2 °C 998.2 hPa WNW 1.6 km/h 11.3 km/h 95 % 0 mm WeatherDisplay:10.37 W/m2 -SN
05:04 -0.4 °C -1.2 °C 998.2 hPa WNW 4.8 km/h 12.9 km/h 95 % 0 mm WeatherDisplay:10.37 W/m2 -SN
05:09 -0.4 °C -1.2 °C 998.2 hPa WSW 1.6 km/h 11.3 km/h 95 % 0 mm WeatherDisplay:10.37 W/m2 -SN
05:14 -0.4 °C -1.2 °C 998.2 hPa Calm   8 km/h 95 % 0 mm WeatherDisplay:10.37 W/m2 -SN
05:19 -0.4 °C -1.2 °C 998.2 hPa West 1.6 km/h 9.7 km/h 95 % 0 mm WeatherDisplay:10.37 W/m2 -SN
05:24 -0.4 °C -1.2 °C 998.2 hPa WNW 3.2 km/h 16.1 km/h 95 % 0 mm WeatherDisplay:10.37 W/m2 -SN
05:29 -0.4 °C -1.2 °C 998.2 hPa WNW 1.6 km/h 20.9 km/h 95 % 0 mm WeatherDisplay:10.37 W/m2 -SN
05:34 -0.4 °C -1.2 °C 998.2 hPa West 3.2 km/h 11.3 km/h 95 % 0 mm WeatherDisplay:10.37 W/m2 -SN
05:39 -0.4 °C -1.2 °C 998.2 hPa West 4.8 km/h 12.9 km/h 95 % 0 mm WeatherDisplay:10.37 W/m2 -SN
05:44 -0.4 °C -1.1 °C 998.2 hPa West 3.2 km/h 14.5 km/h 95 % 0 mm WeatherDisplay:10.37 W/m2 -SN
05:49 -0.4 °C -1.1 °C 998.2 hPa West 1.6 km/h 9.7 km/h 95 % 0 mm WeatherDisplay:10.37 W/m2 -SN
05:54 -0.4 °C -1.1 °C 998.2 hPa NW 3.2 km/h 9.7 km/h 95 % 0 mm WeatherDisplay:10.37 W/m2 -SN
05:59 -0.4 °C -1.1 °C 998.2 hPa WNW 3.2 km/h 11.3 km/h 95 % 0 mm WeatherDisplay:10.37 W/m2 -SN
06:04 -0.4 °C -1.1 °C 998.2 hPa West 1.6 km/h 14.5 km/h 95 % 0 mm WeatherDisplay:10.37 W/m2 -SN
06:09 -0.4 °C -1.1 °C 998.2 hPa West 1.6 km/h 8 km/h 95 % 0 mm WeatherDisplay:10.37 W/m2 -SN
06:14 -0.4 °C -1.2 °C 998.2 hPa WNW 3.2 km/h 11.3 km/h 95 % 0 mm WeatherDisplay:10.37 W/m2 -SN
06:19 -0.4 °C -1.2 °C 998.2 hPa WNW 4.8 km/h 16.1 km/h 95 % 0 mm WeatherDisplay:10.37 W/m2 -SN
06:24 -0.4 °C -1.2 °C 998.2 hPa WNW 1.6 km/h 11.3 km/h 95 % 0 mm WeatherDisplay:10.37 W/m2 -SN
06:29 -0.4 °C -1.2 °C 998.5 hPa West 3.2 km/h 16.1 km/h 95 % 0 mm WeatherDisplay:10.37 W/m2 -SN
06:34 -0.4 °C -1.2 °C 998.5 hPa West 1.6 km/h 12.9 km/h 95 % 0 mm WeatherDisplay:10.37 W/m2 -SN
06:39 -0.4 °C -1.2 °C 998.5 hPa West 1.6 km/h 9.7 km/h 95 % 0 mm WeatherDisplay:10.37 W/m2 -SN
06:44 -0.4 °C -1.2 °C 998.5 hPa West 1.6 km/h 11.3 km/h 95 % 0 mm WeatherDisplay:10.37 W/m2 -SN
06:49 -0.4 °C -1.1 °C 998.9 hPa West 4.8 km/h 19.3 km/h 95 % 0 mm WeatherDisplay:10.37 W/m2 -SN
06:54 -0.3 °C -0.9 °C 998.9 hPa West 4.8 km/h 11.3 km/h 96 % 0 mm WeatherDisplay:10.37 W/m2 -SN
06:59 -0.3 °C -0.8 °C 998.9 hPa West 3.2 km/h 14.5 km/h 96 % 0 mm WeatherDisplay:10.37 W/m2 -SN
07:04 -0.2 °C -0.9 °C 998.9 hPa WNW 3.2 km/h 14.5 km/h 95 % 0 mm WeatherDisplay:10.37 W/m2 -SN
07:09 -0.2 °C -0.7 °C 998.9 hPa NW 1.6 km/h 9.7 km/h 96 % 0 mm WeatherDisplay:10.37 W/m2 -SN
07:14 -0.1 °C -0.8 °C 998.9 hPa Calm   11.3 km/h 95 % 0 mm WeatherDisplay:10.37 W/m2 -SN
07:19 -0.1 °C -0.7 °C 998.9 hPa WSW 1.6 km/h 6.4 km/h 96 % 0 mm WeatherDisplay:10.37 W/m2 -SN
07:24 0 °C -0.6 °C 998.9 hPa SW 3.2 km/h 8 km/h 96 % 0 mm WeatherDisplay:10.37 W/m2 -SN
07:29 0.1 °C -0.5 °C 998.9 hPa WSW 1.6 km/h 9.7 km/h 96 % 0 mm WeatherDisplay:10.37 W/m2 -SN
07:34 0.1 °C -0.4 °C 998.9 hPa Calm   8 km/h 96 % 0 mm WeatherDisplay:10.37 W/m2 -SN
07:39 0.2 °C -0.3 °C 998.9 hPa West 1.6 km/h 8 km/h 96 % 0 mm WeatherDisplay:10.37 W/m2 -SN
07:44 0.3 °C -0.2 °C 998.9 hPa WNW 1.6 km/h 8 km/h 96 % 0 mm WeatherDisplay:10.37 W/m2 -SN
07:49 0.4 °C -0.2 °C 998.9 hPa WNW 1.6 km/h 11.3 km/h 96 % 0 mm WeatherDisplay:10.37 W/m2 -SN
07:54 0.5 °C -0.1 °C 998.9 hPa WNW 1.6 km/h 11.3 km/h 96 % 0 mm WeatherDisplay:10.37 W/m2 -SN
07:59 0.5 °C -0.1 °C 998.9 hPa Calm   8 km/h 96 % 0 mm WeatherDisplay:10.37 W/m2 -SN
08:04 0.6 °C 0.1 °C 999.2 hPa WNW 1.6 km/h 8 km/h 96 % 0 mm WeatherDisplay:10.37 W/m2 -SN
08:09 0.7 °C 0.1 °C 999.2 hPa West 1.6 km/h 8 km/h 96 % 0 mm WeatherDisplay:10.37 W/m2 -SN
08:14 0.8 °C 0.2 °C 999.2 hPa WNW 1.6 km/h 11.3 km/h 96 % 0 mm WeatherDisplay:10.37 W/m2 -SN
08:19 0.8 °C 0.3 °C 999.2 hPa Calm   8 km/h 96 % 0 mm WeatherDisplay:10.37 W/m2 -SN
08:24 0.9 °C 0.3 °C 999.2 hPa Calm   11.3 km/h 96 % 0 mm WeatherDisplay:10.37 W/m2 -SN
08:29 0.9 °C 0.4 °C 999.2 hPa West 1.6 km/h 9.7 km/h 96 % 0 mm WeatherDisplay:10.37 W/m2 -SN
08:34 1 °C 0.4 °C 999.2 hPa West 1.6 km/h 8 km/h 96 % 0 mm WeatherDisplay:10.37 W/m2 -SN
08:39 1.1 °C 0.6 °C 999.2 hPa West 1.6 km/h 11.3 km/h 96 % 0 mm WeatherDisplay:10.37 W/m2 -SN
08:44 1.2 °C 0.7 °C 999.2 hPa WNW 1.6 km/h 8 km/h 96 % 0 mm WeatherDisplay:10.37 W/m2 -SN
08:49 1.4 °C 0.8 °C 999.2 hPa West 1.6 km/h 11.3 km/h 96 % 0 mm WeatherDisplay:10.37 W/m2 -SN
08:54 1.7 °C 1.1 °C 999.5 hPa Calm   9.7 km/h 96 % 0 mm WeatherDisplay:10.37 W/m2 -SN
08:59 1.9 °C 1.3 °C 999.2 hPa WNW 1.6 km/h 8 km/h 96 % 0 mm WeatherDisplay:10.37 W/m2 -SN
09:04 2.1 °C 1.5 °C 999.2 hPa West 1.6 km/h 8 km/h 96 % 0 mm WeatherDisplay:10.37 W/m2 -SN
09:09 2.3 °C 1.8 °C 999.2 hPa West 1.6 km/h 11.3 km/h 96 % 0 mm WeatherDisplay:10.37 W/m2 -SN
09:14 2.7 °C 2.1 °C 999.2 hPa Calm   9.7 km/h 96 % 0 mm WeatherDisplay:10.37 W/m2 -SN
09:24 3 °C 2.4 °C 999.2 hPa West 1.6 km/h 12.9 km/h 96 % 0 mm WeatherDisplay:10.37 W/m2 -SN
09:29 3.1 °C 2.3 °C 999.2 hPa West 3.2 km/h 9.7 km/h 95 % 0 mm WeatherDisplay:10.37 W/m2 -SN
09:34 3 °C 2.1 °C 999.2 hPa WSW 3.2 km/h 9.7 km/h 94 % 0 mm WeatherDisplay:10.37 W/m2 -SN
09:39 3 °C 2.1 °C 999.5 hPa Calm   9.7 km/h 94 % 0 mm WeatherDisplay:10.37 W/m2 -SN
09:44 3.1 °C 2.2 °C 999.5 hPa WSW 1.6 km/h 8 km/h 94 % 0 mm WeatherDisplay:10.37 W/m2 -SN
09:49 2.9 °C 1.9 °C 999.5 hPa WSW 1.6 km/h 12.9 km/h 93 % 0 mm WeatherDisplay:10.37 W/m2 -SN
09:54 2.9 °C 1.9 °C 999.5 hPa WSW 1.6 km/h 11.3 km/h 93 % 0 mm WeatherDisplay:10.37 W/m2 -SN
09:59 2.8 °C 1.8 °C 999.5 hPa WSW 1.6 km/h 9.7 km/h 93 % 0 mm WeatherDisplay:10.37 W/m2 -SN
10:04 2.8 °C 1.6 °C 999.5 hPa WSW 1.6 km/h 14.5 km/h 92 % 0 mm WeatherDisplay:10.37 W/m2 -SN
10:09 2.7 °C 1.6 °C 999.5 hPa WSW 1.6 km/h 9.7 km/h 92 % 0 mm WeatherDisplay:10.37 W/m2 -SN
10:14 2.7 °C 1.6 °C 999.5 hPa WSW 1.6 km/h 8 km/h 92 % 0 mm WeatherDisplay:10.37 W/m2 -SN
10:19 2.8 °C 1.6 °C 999.2 hPa West 1.6 km/h 9.7 km/h 92 % 0 mm WeatherDisplay:10.37 W/m2 OVC
10:29 2.9 °C 1.9 °C 999.2 hPa WSW 1.6 km/h 8 km/h 93 % 0 mm WeatherDisplay:10.37 W/m2 OVC
10:34 3 °C 2 °C 999.2 hPa Calm   11.3 km/h 93 % 0 mm WeatherDisplay:10.37 W/m2 OVC
10:39 3.1 °C 2.1 °C 999.5 hPa West 3.2 km/h 12.9 km/h 93 % 0 mm WeatherDisplay:10.37 W/m2 OVC
10:44 3.1 °C 2.1 °C 999.2 hPa West 1.6 km/h 9.7 km/h 93 % 0 mm WeatherDisplay:10.37 W/m2 OVC
10:49 3.2 °C 2.2 °C 999.5 hPa Calm   6.4 km/h 93 % 0 mm WeatherDisplay:10.37 W/m2 OVC
10:54 3.3 °C 2.3 °C 999.5 hPa West 3.2 km/h 9.7 km/h 93 % 0 mm WeatherDisplay:10.37 W/m2 OVC
10:59 3.4 °C 2.4 °C 999.5 hPa WNW 1.6 km/h 6.4 km/h 93 % 0 mm WeatherDisplay:10.37 W/m2 OVC
11:04 3.5 °C 2.5 °C 999.5 hPa WNW 3.2 km/h 9.7 km/h 93 % 0 mm WeatherDisplay:10.37 W/m2 OVC
11:09 3.7 °C 2.7 °C 999.5 hPa NW 1.6 km/h 6.4 km/h 93 % 0 mm WeatherDisplay:10.37 W/m2 OVC
11:14 3.9 °C 2.9 °C 999.5 hPa NW 1.6 km/h 14.5 km/h 93 % 0 mm WeatherDisplay:10.37 W/m2 OVC
11:19 4.1 °C 3.1 °C 999.5 hPa West 1.6 km/h 8 km/h 93 % 0 mm WeatherDisplay:10.37 W/m2 OVC
11:24 4.3 °C 3.1 °C 999.5 hPa WNW 3.2 km/h 11.3 km/h 92 % 0 mm WeatherDisplay:10.37 W/m2 OVC
11:29 4.4 °C 3.2 °C 999.5 hPa NW 3.2 km/h 14.5 km/h 92 % 0 mm WeatherDisplay:10.37 W/m2 OVC
11:34 4.7 °C 3.4 °C 999.5 hPa WNW 4.8 km/h 12.9 km/h 92 % 0 mm WeatherDisplay:10.37 W/m2 OVC
11:39 4.9 °C 3.6 °C 999.5 hPa WNW 8 km/h 16.1 km/h 91 % 0 mm WeatherDisplay:10.37 W/m2 OVC
11:44 4.9 °C 3.4 °C 999.5 hPa WNW 4.8 km/h 11.3 km/h 90 % 0 mm WeatherDisplay:10.37 W/m2 OVC
11:49 5 °C 3.5 °C 999.5 hPa Calm   16.1 km/h 90 % 0 mm WeatherDisplay:10.37 W/m2 OVC
11:54 5.2 °C 3.7 °C 999.5 hPa SW 1.6 km/h 8 km/h 90 % 0 mm WeatherDisplay:10.37 W/m2 OVC
11:59 5.4 °C 3.9 °C 999.5 hPa West 4.8 km/h 8 km/h 90 % 0 mm WeatherDisplay:10.37 W/m2 OVC
12:04 5.7 °C 4 °C 999.5 hPa WNW 3.2 km/h 12.9 km/h 89 % 0 mm WeatherDisplay:10.37 W/m2 OVC
12:09 5.8 °C 3.8 °C 999.5 hPa Calm   14.5 km/h 87 % 0 mm WeatherDisplay:10.37 W/m2 OVC
12:14 5.9 °C 3.8 °C 999.5 hPa WNW 4.8 km/h 19.3 km/h 86 % 0 mm WeatherDisplay:10.37 W/m2 OVC
12:19 6.1 °C 3.7 °C 999.5 hPa WNW 3.2 km/h 16.1 km/h 85 % 0 mm WeatherDisplay:10.37 W/m2 BKN
12:29 6.2 °C 3.9 °C 999.9 hPa Calm   12.9 km/h 85 % 0 mm WeatherDisplay:10.37 W/m2 BKN
12:34 6.2 °C 3.5 °C 999.9 hPa WNW 8 km/h 16.1 km/h 83 % 0 mm WeatherDisplay:10.37 W/m2 BKN
12:39 6 °C 3.5 °C 999.9 hPa NW 4.8 km/h 11.3 km/h 84 % 0 mm WeatherDisplay:10.37 W/m2 BKN
12:44 5.9 °C 3.6 °C 999.9 hPa WNW 4.8 km/h 14.5 km/h 85 % 0 mm WeatherDisplay:10.37 W/m2 BKN
12:49 5.8 °C 3.7 °C 999.9 hPa NW 8 km/h 19.3 km/h 86 % 0 mm WeatherDisplay:10.37 W/m2 BKN
12:54 5.8 °C 3.7 °C 999.9 hPa NNW 3.2 km/h 14.5 km/h 86 % 0 mm WeatherDisplay:10.37 W/m2 BKN
12:59 5.9 °C 3.4 °C 999.9 hPa NNW 11.3 km/h 19.3 km/h 84 % 0 mm WeatherDisplay:10.37 W/m2 BKN
13:04 5.9 °C 3.4 °C 999.9 hPa NNW 8 km/h 16.1 km/h 84 % 0 mm WeatherDisplay:10.37 W/m2 BKN
13:09 5.9 °C 3.1 °C 1000.2 hPa NW 8 km/h 16.1 km/h 82 % 0 mm WeatherDisplay:10.37 W/m2 BKN
13:14 6 °C 3.3 °C 1000.2 hPa NW 1.6 km/h 12.9 km/h 83 % 0 mm WeatherDisplay:10.37 W/m2 BKN
13:19 6.1 °C 3.4 °C 1000.2 hPa NW 4.8 km/h 16.1 km/h 83 % 0 mm WeatherDisplay:10.37 W/m2 OVC
13:24 6.3 °C 3.4 °C 1000.2 hPa WNW 8 km/h 16.1 km/h 82 % 0 mm WeatherDisplay:10.37 W/m2 OVC
13:29 6.5 °C 3.7 °C 1000.2 hPa NW 1.6 km/h 12.9 km/h 82 % 0 mm WeatherDisplay:10.37 W/m2 OVC
13:34 6.7 °C 3.4 °C 1000.2 hPa West 3.2 km/h 14.5 km/h 80 % 0 mm WeatherDisplay:10.37 W/m2 OVC
13:39 6.7 °C 3.5 °C 1000.2 hPa West 4.8 km/h 19.3 km/h 80 % 0 mm WeatherDisplay:10.37 W/m2 OVC
13:44 6.7 °C 3.4 °C 1000.2 hPa WSW 3.2 km/h 16.1 km/h 80 % 0 mm WeatherDisplay:10.37 W/m2 OVC
13:49 6.6 °C 3.8 °C 1000.6 hPa WSW 1.6 km/h 9.7 km/h 82 % 0.25 mm WeatherDisplay:10.37 W/m2 RA
13:54 6.4 °C 3.8 °C 1000.6 hPa WNW 1.6 km/h 12.9 km/h 83 % 0.25 mm WeatherDisplay:10.37 W/m2 RA
13:59 6.2 °C 3.9 °C 1000.6 hPa WNW 1.6 km/h 14.5 km/h 85 % 0 mm WeatherDisplay:10.37 W/m2 RA
14:04 6.2 °C 4 °C 1000.6 hPa West 3.2 km/h 9.7 km/h 86 % 0 mm WeatherDisplay:10.37 W/m2 OVC
14:09 6.2 °C 4.4 °C 1000.6 hPa WNW 1.6 km/h 6.4 km/h 88 % 0 mm WeatherDisplay:10.37 W/m2 OVC
14:19 6.4 °C 4.7 °C 1000.6 hPa West 1.6 km/h 9.7 km/h 89 % 0 mm WeatherDisplay:10.37 W/m2 BKN
14:24 6.4 °C 4.8 °C 1000.6 hPa West 3.2 km/h 9.7 km/h 89 % 0 mm WeatherDisplay:10.37 W/m2 BKN
14:29 6.5 °C 4.7 °C 1000.6 hPa WNW 3.2 km/h 9.7 km/h 88 % 0 mm WeatherDisplay:10.37 W/m2 BKN
14:34 6.4 °C 4.4 °C 1000.9 hPa West 3.2 km/h 11.3 km/h 87 % 0 mm WeatherDisplay:10.37 W/m2 BKN
14:39 6.2 °C 4.1 °C 1000.9 hPa West 9.7 km/h 25.7 km/h 86 % 0 mm WeatherDisplay:10.37 W/m2 BKN
14:44 6.1 °C 3.9 °C 1000.9 hPa WNW 1.6 km/h 11.3 km/h 86 % 0 mm WeatherDisplay:10.37 W/m2 BKN
14:49 6.1 °C 4.1 °C 1000.9 hPa NW 3.2 km/h 12.9 km/h 87 % 0 mm WeatherDisplay:10.37 W/m2 BKN
14:54 6.2 °C 4.2 °C 1000.9 hPa WNW 1.6 km/h 16.1 km/h 87 % 0 mm WeatherDisplay:10.37 W/m2 BKN
14:59 6.2 °C 4.2 °C 1000.9 hPa West 3.2 km/h 12.9 km/h 87 % 0 mm WeatherDisplay:10.37 W/m2 BKN
15:04 6.2 °C 4.1 °C 1000.9 hPa WNW 1.6 km/h 12.9 km/h 86 % 0 mm WeatherDisplay:10.37 W/m2 BKN
15:14 6.2 °C 3.8 °C 1001.2 hPa West 3.2 km/h 17.7 km/h 85 % 0 mm WeatherDisplay:10.37 W/m2 OVC
15:19 6.1 °C 3.9 °C 1001.2 hPa West 3.2 km/h 9.7 km/h 86 % 0 mm WeatherDisplay:10.37 W/m2 OVC
15:24 6.1 °C 3.9 °C 1001.2 hPa WNW 8 km/h 19.3 km/h 86 % 0 mm WeatherDisplay:10.37 W/m2 OVC
15:29 6.1 °C 3.9 °C 1001.2 hPa WNW 3.2 km/h 14.5 km/h 86 % 0 mm WeatherDisplay:10.37 W/m2 OVC
15:34 6 °C 3.8 °C 1001.6 hPa WNW 3.2 km/h 12.9 km/h 86 % 0 mm WeatherDisplay:10.37 W/m2 OVC
15:39 6 °C 3.8 °C 1001.6 hPa WNW 4.8 km/h 12.9 km/h 86 % 0 mm WeatherDisplay:10.37 W/m2 OVC
15:44 6 °C 3.7 °C 1001.2 hPa NW 1.6 km/h 14.5 km/h 85 % 0.25 mm WeatherDisplay:10.37 W/m2 RA
15:49 6 °C 3.7 °C 1001.6 hPa NW 9.7 km/h 19.3 km/h 85 % 0 mm WeatherDisplay:10.37 W/m2 RA
15:54 6 °C 3.5 °C 1001.2 hPa WNW 8 km/h 19.3 km/h 84 % 0 mm WeatherDisplay:10.37 W/m2 OVC
15:59 5.9 °C 3.4 °C 1001.6 hPa WNW 8 km/h 20.9 km/h 84 % 0 mm WeatherDisplay:10.37 W/m2 OVC
16:04 5.9 °C 3.4 °C 1001.6 hPa WNW 4.8 km/h 24.1 km/h 84 % 0 mm WeatherDisplay:10.37 W/m2 OVC
16:09 5.9 °C 3.4 °C 1001.6 hPa NW 4.8 km/h 14.5 km/h 84 % 0 mm WeatherDisplay:10.37 W/m2 OVC
16:14 6 °C 3.5 °C 1001.6 hPa West 4.8 km/h 20.9 km/h 84 % 0 mm WeatherDisplay:10.37 W/m2 OVC
16:19 6.1 °C 3.4 °C 1001.6 hPa West 1.6 km/h 20.9 km/h 83 % 0 mm WeatherDisplay:10.37 W/m2 OVC
16:24 6.1 °C 3.4 °C 1001.6 hPa WNW 3.2 km/h 11.3 km/h 83 % 0 mm WeatherDisplay:10.37 W/m2 OVC
16:29 6.2 °C 3.3 °C 1001.6 hPa WNW 3.2 km/h 14.5 km/h 82 % 0 mm WeatherDisplay:10.37 W/m2 OVC
16:34 6.2 °C 3.3 °C 1001.6 hPa WNW 4.8 km/h 19.3 km/h 82 % 0 mm WeatherDisplay:10.37 W/m2 OVC
16:39 6.2 °C 3.2 °C 1001.6 hPa WNW 9.7 km/h 19.3 km/h 81 % 0 mm WeatherDisplay:10.37 W/m2 OVC
16:44 6.2 °C 3 °C 1001.6 hPa NW 8 km/h 22.5 km/h 80 % 0 mm WeatherDisplay:10.37 W/m2 OVC
16:49 6.3 °C 3.1 °C 1001.6 hPa WNW 9.7 km/h 19.3 km/h 80 % 0 mm WeatherDisplay:10.37 W/m2 OVC
16:54 6.3 °C 2.9 °C 1001.6 hPa WNW 4.8 km/h 16.1 km/h 79 % 0 mm WeatherDisplay:10.37 W/m2 OVC
16:59 6.4 °C 2.8 °C 1001.6 hPa NW 12.9 km/h 27.4 km/h 78 % 0 mm WeatherDisplay:10.37 W/m2 OVC
17:04 6.3 °C 2.8 °C 1001.6 hPa NW 1.6 km/h 16.1 km/h 78 % 0 mm WeatherDisplay:10.37 W/m2 OVC
17:09 6.3 °C 2.9 °C 1001.6 hPa NNW 3.2 km/h 14.5 km/h 79 % 0 mm WeatherDisplay:10.37 W/m2 OVC
17:14 6.1 °C 3 °C 1001.6 hPa NW 8 km/h 16.1 km/h 81 % 0 mm WeatherDisplay:10.37 W/m2 OVC
17:19 5.8 °C 3.1 °C 1001.6 hPa NW 3.2 km/h 12.9 km/h 83 % 0 mm WeatherDisplay:10.37 W/m2 BKN
17:24 5.6 °C 3.1 °C 1001.6 hPa NW 4.8 km/h 11.3 km/h 84 % 0 mm WeatherDisplay:10.37 W/m2 BKN
17:29 5.3 °C 2.9 °C 1001.9 hPa NW 11.3 km/h 16.1 km/h 85 % 0 mm WeatherDisplay:10.37 W/m2 BKN
17:34 4.9 °C 2.8 °C 1001.9 hPa NW 8 km/h 19.3 km/h 86 % 0 mm WeatherDisplay:10.37 W/m2 BKN
17:39 4.7 °C 2.6 °C 1001.9 hPa NW 8 km/h 16.1 km/h 86 % 0 mm WeatherDisplay:10.37 W/m2 BKN
17:44 4.5 °C 2.5 °C 1001.9 hPa NW 9.7 km/h 20.9 km/h 87 % 0 mm WeatherDisplay:10.37 W/m2 BKN
17:49 4.3 °C 2.6 °C 1002.3 hPa NW 9.7 km/h 19.3 km/h 88 % 0.25 mm WeatherDisplay:10.37 W/m2 RA
17:54 4.2 °C 2.4 °C 1002.3 hPa NW 4.8 km/h 19.3 km/h 88 % 0 mm WeatherDisplay:10.37 W/m2 RA
18:04 4.1 °C 2.6 °C 1001.9 hPa NW 4.8 km/h 14.5 km/h 90 % 0 mm WeatherDisplay:10.37 W/m2 BKN
18:09 4.1 °C 2.6 °C 1001.9 hPa NW 8 km/h 19.3 km/h 90 % 0 mm WeatherDisplay:10.37 W/m2 BKN
18:14 4.1 °C 2.6 °C 1001.9 hPa WNW 3.2 km/h 12.9 km/h 90 % 0 mm WeatherDisplay:10.37 W/m2 BKN
18:19 4 °C 2.5 °C 1001.9 hPa NW 11.3 km/h 17.7 km/h 90 % 0 mm WeatherDisplay:10.37 W/m2 BKN
18:24 3.9 °C 2.3 °C 1001.9 hPa NW 8 km/h 12.9 km/h 89 % 0 mm WeatherDisplay:10.37 W/m2 BKN
18:29 3.8 °C 2.2 °C 1002.3 hPa NW 4.8 km/h 14.5 km/h 89 % 0 mm WeatherDisplay:10.37 W/m2 BKN
18:34 3.8 °C 2.2 °C 1002.3 hPa NW 4.8 km/h 16.1 km/h 89 % 0 mm WeatherDisplay:10.37 W/m2 BKN
18:39 3.8 °C 2.1 °C 1002.3 hPa WNW 8 km/h 14.5 km/h 89 % 0 mm WeatherDisplay:10.37 W/m2 BKN
18:44 3.8 °C 2.1 °C 1002.3 hPa Calm   11.3 km/h 89 % 0 mm WeatherDisplay:10.37 W/m2 BKN
18:49 3.8 °C 2.1 °C 1002.3 hPa NW 1.6 km/h 9.7 km/h 89 % 0 mm WeatherDisplay:10.37 W/m2 BKN
18:54 3.8 °C 2.1 °C 1002.3 hPa NW 3.2 km/h 11.3 km/h 89 % 0 mm WeatherDisplay:10.37 W/m2 BKN
18:59 3.8 °C 2 °C 1002.3 hPa NW 8 km/h 19.3 km/h 88 % 0 mm WeatherDisplay:10.37 W/m2 BKN
19:04 3.7 °C 1.9 °C 1002.3 hPa NW 1.6 km/h 11.3 km/h 88 % 0 mm WeatherDisplay:10.37 W/m2 BKN
19:09 3.7 °C 1.9 °C 1002.3 hPa NW 3.2 km/h 14.5 km/h 88 % 0 mm WeatherDisplay:10.37 W/m2 BKN
19:14 3.6 °C 1.8 °C 1002.3 hPa NW 3.2 km/h 11.3 km/h 88 % 0 mm WeatherDisplay:10.37 W/m2 BKN
19:19 3.6 °C 1.8 °C 1002.3 hPa NW 1.6 km/h 8 km/h 88 % 0 mm WeatherDisplay:10.37 W/m2 BKN
19:24 3.5 °C 1.7 °C 1002.3 hPa NW 1.6 km/h 12.9 km/h 88 % 0 mm WeatherDisplay:10.37 W/m2 BKN
19:29 3.5 °C 1.7 °C 1002.3 hPa NW 1.6 km/h 12.9 km/h 88 % 0 mm WeatherDisplay:10.37 W/m2 BKN
19:34 3.4 °C 1.6 °C 1002.3 hPa Calm   4.8 km/h 88 % 0 mm WeatherDisplay:10.37 W/m2 BKN
19:39 3.3 °C 1.6 °C 1002.3 hPa Calm   9.7 km/h 88 % 0 mm WeatherDisplay:10.37 W/m2 BKN
19:44 3.3 °C 1.5 °C 1002.6 hPa Calm   4.8 km/h 88 % 0 mm WeatherDisplay:10.37 W/m2 BKN
19:49 3.2 °C 1.4 °C 1002.6 hPa NW 3.2 km/h 8 km/h 88 % 0 mm WeatherDisplay:10.37 W/m2 BKN
19:54 3.2 °C 1.6 °C 1002.6 hPa Calm   9.7 km/h 89 % 0 mm WeatherDisplay:10.37 W/m2 BKN
19:59 3.2 °C 1.5 °C 1002.6 hPa Calm   4.8 km/h 89 % 0 mm WeatherDisplay:10.37 W/m2 BKN
20:04 3.1 °C 1.5 °C 1002.6 hPa NW 3.2 km/h 8 km/h 89 % 0 mm WeatherDisplay:10.37 W/m2 BKN
20:09 3.1 °C 1.4 °C 1002.6 hPa NW 1.6 km/h 4.8 km/h 89 % 0 mm WeatherDisplay:10.37 W/m2 BKN
20:14 3.1 °C 1.4 °C 1002.6 hPa NNW 1.6 km/h 6.4 km/h 89 % 0 mm WeatherDisplay:10.37 W/m2 OVC
20:19 3 °C 1.4 °C 1002.9 hPa Calm   6.4 km/h 89 % 0 mm WeatherDisplay:10.37 W/m2 OVC
20:24 3 °C 1.3 °C 1002.9 hPa NW 1.6 km/h 6.4 km/h 89 % 0 mm WeatherDisplay:10.37 W/m2 OVC
20:29 2.9 °C 1.3 °C 1002.9 hPa Calm   6.4 km/h 89 % 0 mm WeatherDisplay:10.37 W/m2 OVC
20:34 2.9 °C 1.3 °C 1002.9 hPa NW 1.6 km/h 6.4 km/h 89 % 0 mm WeatherDisplay:10.37 W/m2 OVC
20:39 2.9 °C 1.3 °C 1002.9 hPa NW 3.2 km/h 8 km/h 89 % 0 mm WeatherDisplay:10.37 W/m2 OVC
20:44 2.9 °C 1.3 °C 1002.9 hPa NW 1.6 km/h 12.9 km/h 89 % 0 mm WeatherDisplay:10.37 W/m2 OVC
20:49 2.9 °C 1.4 °C 1003.3 hPa Calm   11.3 km/h 90 % 0 mm WeatherDisplay:10.37 W/m2 OVC
20:54 2.9 °C 1.4 °C 1003.3 hPa WNW 1.6 km/h 11.3 km/h 90 % 0 mm WeatherDisplay:10.37 W/m2 OVC
20:59 2.8 °C 1.3 °C 1003.3 hPa WNW 1.6 km/h 8 km/h 90 % 0 mm WeatherDisplay:10.37 W/m2 OVC
21:04 2.8 °C 1.3 °C 1003.3 hPa NW 1.6 km/h 8 km/h 90 % 0 mm WeatherDisplay:10.37 W/m2 OVC
21:09 2.8 °C 1.3 °C 1003.3 hPa WNW 1.6 km/h 6.4 km/h 90 % 0 mm WeatherDisplay:10.37 W/m2 OVC
21:14 2.8 °C 1.3 °C 1003.6 hPa NW 1.6 km/h 4.8 km/h 90 % 0 mm WeatherDisplay:10.37 W/m2 OVC
21:19 2.7 °C 1.2 °C 1003.6 hPa NW 1.6 km/h 9.7 km/h 90 % 0 mm WeatherDisplay:10.37 W/m2 OVC
21:24 2.7 °C 1.2 °C 1003.6 hPa WNW 1.6 km/h 9.7 km/h 90 % 0 mm WeatherDisplay:10.37 W/m2 OVC
21:29 2.7 °C 1.2 °C 1003.6 hPa WNW 1.6 km/h 8 km/h 90 % 0 mm WeatherDisplay:10.37 W/m2 OVC
21:34 2.7 °C 1.2 °C 1003.6 hPa NW 4.8 km/h 14.5 km/h 90 % 0 mm WeatherDisplay:10.37 W/m2 OVC
21:39 2.6 °C 1 °C 1003.6 hPa NW 1.6 km/h 11.3 km/h 89 % 0 mm WeatherDisplay:10.37 W/m2 OVC
21:44 2.6 °C 1 °C 1003.6 hPa NW 4.8 km/h 12.9 km/h 89 % 0 mm WeatherDisplay:10.37 W/m2 OVC
21:49 2.6 °C 1.1 °C 1003.6 hPa NW 3.2 km/h 12.9 km/h 90 % 0 mm WeatherDisplay:10.37 W/m2 OVC
21:54 2.6 °C 1.1 °C 1003.6 hPa NW 3.2 km/h 16.1 km/h 90 % 0 mm WeatherDisplay:10.37 W/m2 OVC
21:59 2.5 °C 1 °C 1003.6 hPa WNW 4.8 km/h 11.3 km/h 90 % 0 mm WeatherDisplay:10.37 W/m2 OVC
22:04 2.4 °C 0.9 °C 1003.6 hPa NW 8 km/h 14.5 km/h 90 % 0 mm WeatherDisplay:10.37 W/m2 OVC
22:09 2.4 °C 0.9 °C 1003.6 hPa NNW 3.2 km/h 16.1 km/h 90 % 0 mm WeatherDisplay:10.37 W/m2 OVC
22:19 2.3 °C 0.7 °C 1003.6 hPa NW 4.8 km/h 11.3 km/h 89 % 0 mm WeatherDisplay:10.37 W/m2 OVC
22:29 2.2 °C 0.6 °C 1003.6 hPa WNW 1.6 km/h 8 km/h 89 % 0 mm WeatherDisplay:10.37 W/m2 OVC
22:34 2.1 °C 0.5 °C 1003.6 hPa Calm   4.8 km/h 89 % 0 mm WeatherDisplay:10.37 W/m2 OVC
22:39 2.1 °C 0.4 °C 1003.6 hPa NW 3.2 km/h 8 km/h 89 % 0 mm WeatherDisplay:10.37 W/m2 OVC
22:44 2 °C 0.4 °C 1003.6 hPa NW 1.6 km/h 8 km/h 89 % 0 mm WeatherDisplay:10.37 W/m2 OVC
22:49 2 °C 0.4 °C 1003.6 hPa NW 1.6 km/h 8 km/h 89 % 0 mm WeatherDisplay:10.37 W/m2 OVC
22:54 1.9 °C 0.3 °C 1003.6 hPa NW 3.2 km/h 9.7 km/h 89 % 0 mm WeatherDisplay:10.37 W/m2 OVC
22:59 1.9 °C 0.3 °C 1003.6 hPa NW 1.6 km/h 8 km/h 89 % 0 mm WeatherDisplay:10.37 W/m2 OVC
23:04 1.9 °C 0.3 °C 1003.6 hPa NW 3.2 km/h 11.3 km/h 89 % 0 mm WeatherDisplay:10.37 W/m2 OVC
23:09 1.9 °C 0.3 °C 1003.6 hPa NW 4.8 km/h 11.3 km/h 89 % 0 mm WeatherDisplay:10.37 W/m2 OVC
23:14 1.9 °C 0.3 °C 1003.6 hPa NW 3.2 km/h 8 km/h 89 % 0 mm WeatherDisplay:10.37 W/m2 OVC
23:19 1.8 °C 0.1 °C 1003.6 hPa NNW 4.8 km/h 12.9 km/h 88 % 0 mm WeatherDisplay:10.37 W/m2 OVC
23:24 1.8 °C 0 °C 1003.6 hPa Calm   11.3 km/h 88 % 0 mm WeatherDisplay:10.37 W/m2 OVC
23:29 1.8 °C 0 °C 1003.6 hPa NW 4.8 km/h 12.9 km/h 88 % 0 mm WeatherDisplay:10.37 W/m2 OVC
23:34 1.7 °C -0.2 °C 1003.6 hPa NW 1.6 km/h 14.5 km/h 87 % 0 mm WeatherDisplay:10.37 W/m2 OVC
23:39 1.7 °C -0.2 °C 1003.6 hPa NNW 3.2 km/h 9.7 km/h 87 % 0 mm WeatherDisplay:10.37 W/m2 OVC
23:44 1.7 °C -0.2 °C 1003.6 hPa NW 1.6 km/h 9.7 km/h 87 % 0 mm WeatherDisplay:10.37 W/m2 OVC
23:49 1.7 °C -0.2 °C 1003.6 hPa NW 1.6 km/h 9.7 km/h 87 % 0 mm WeatherDisplay:10.37 W/m2 OVC
23:54 1.7 °C -0.3 °C 1003.6 hPa NW 1.6 km/h 6.4 km/h 87 % 0 mm WeatherDisplay:10.37 W/m2 OVC
23:59 1.7 °C -0.3 °C 1003.6 hPa Calm   4.8 km/h 87 % 0 mm WeatherDisplay:10.37 W/m2 RA
Juneau County Weather
Compliments of Weather Underground - 2.75 mb